Location: Regensburg
(48.4565°N, 10.3217°E)
Time: 02:52:59
(UTC+01:00)

Tiangong 2 - Visible Passes

Search period start: 25 November 2017 00:00
Search period end: 05 December 2017 00:00
Orbit: 386 x 392 km, 42.8° (Epoch: 24 November)

Date Brightness Start Highest point End Pass type
(mag) Time Alt. Az. Time Alt. Az. Time Alt. Az.
27 Nov 4.0 06:50:09 10° SSW 06:52:09 16° SSE 06:54:10 10° ESE visible
28 Nov 4.2 05:53:12 10° S 05:54:10 11° SSE 05:55:07 10° SE visible
29 Nov 3.5 06:29:45 10° SW 06:32:14 21° SSE 06:34:44 10° ESE visible
30 Nov 3.6 05:33:20 15° S 05:34:11 16° SSE 05:36:15 10° ESE visible
30 Nov 2.9 07:07:38 10° WSW 07:10:28 28° S 07:13:17 10° ESE visible
01 Dec 3.0 06:10:23 15° SW 06:12:20 26° S 06:15:03 10° ESE visible
02 Dec 3.5 05:15:00 19° SE 05:15:00 19° SE 05:16:43 10° ESE visible
02 Dec 2.7 06:47:43 10° WSW 06:50:33 29° S 06:53:23 10° ESE visible
03 Dec 2.5 05:51:50 27° SSW 05:52:23 29° S 05:55:12 10° ESE visible
04 Dec 4.2 04:56:18 14° ESE 04:56:18 14° ESE 04:56:56 10° ESE visible
04 Dec 2.8 06:28:36 15° WSW 06:30:35 26° S 06:33:20 10° SE visible
